Flag for U.S.A. Weather past 2 weeks in Seattle, Washington, U.S.A.

Now
55 °F

Mostly cloudy.


Feels Like: 55 °F
Forecast: 52 / 64 °F
Wind: 3 mph from Southeast

Location: Seattle Boeing Field

Current Time: Sep 3, 2015 at 4:07:58 AM

Latest Report: Sep 3, 2015 at 2:53 AM


Visibility: 10 mi

Pressure: 29.97 "Hg

Humidity: 80%

Dew point: 49 °F

Location of SeattleLocation

Historic Weather in Seattle — Graph

°F

Seattle temperature yesterday

Maximum temperature yesterday: 69 °F (at 3:53 PM)
Minimum temperature yesterday: 57 °F (at 10:53 PM)
Average temperature yesterday: 62 °F

Past Weeks' High & Low Weather Summary

 TemperatureHumidityPressure
High91 °F (Aug 19, 4:53 PM)100% (Aug 30, 3:53 AM)30.12 "Hg (Aug 30, 3:53 AM)
Low54 °F (Sep 3, 1:53 AM)22% (Aug 27, 4:53 PM)29.50 "Hg (Aug 29, 4:53 AM)
Average68 °F57%29.93 "Hg
* Reported Aug 19 2:53 AM — Sep 3 2:53 AM, Seattle, Weather by CustomWeather, © 2015

Note: Actual official high and low records may vary slightly from our data, if they occured in-between our weather recording intervals... More about our weather records

Advertising

Seattle weather history for previous 24 hours

 ConditionsComfort  
Time TempWeatherWind HumidityBarometerVisibility
2:53 AM
Thu, Sep 3
55 °FMostly cloudy.3 mph80%29.97 "Hg10 mi
1:53 AM54 °FPassing clouds.No wind80%29.96 "Hg10 mi
12:53 AM55 °FClear.No wind77%29.96 "Hg10 mi
11:53 PM
Wed, Sep 2
57 °FClear.No wind74%29.96 "Hg10 mi
10:53 PM57 °FPassing clouds.No wind72%29.96 "Hg10 mi
9:53 PM58 °FPassing clouds.No wind70%29.95 "Hg10 mi
8:53 PM59 °FPartly cloudy.No wind69%29.95 "Hg10 mi
7:53 PM59 °FPartly sunny.3 mph72%29.93 "Hg10 mi
6:53 PM61 °FScattered clouds.6 mph62%29.91 "Hg10 mi
5:53 PM68 °FPassing clouds.7 mph45%29.89 "Hg10 mi
4:53 PM69 °FScattered clouds.9 mph44%29.89 "Hg10 mi
3:53 PM69 °FSunny.9 mph44%29.89 "Hg10 mi
2:53 PM67 °FScattered clouds.9 mph49%29.90 "Hg10 mi
1:53 PM65 °FLight rain. Broken clouds.8 mph54%29.90 "Hg10 mi
12:53 PM66 °FBroken clouds.12 mph49%29.90 "Hg10 mi
11:53 AM67 °FBroken clouds.8 mph53%29.90 "Hg10 mi
10:53 AM65 °FPartly sunny.8 mph54%29.90 "Hg10 mi
9:53 AM62 °FPartly sunny.6 mph67%29.89 "Hg10 mi
8:53 AM61 °FPartly sunny.6 mph75%29.88 "Hg10 mi
7:53 AM60 °FMostly cloudy.3 mph72%29.88 "Hg10 mi
6:53 AM60 °FPartly cloudy.5 mph75%29.86 "Hg10 mi
5:53 AM60 °FMostly cloudy.3 mph75%29.84 "Hg10 mi
4:53 AM60 °FMostly cloudy.8 mph75%29.82 "Hg10 mi
Weather by CustomWeather, © 2015

See weather overviewHow to use our weather pages